ECMWFFLT1_850_temp_021.txt.gz
Temp
32 32 32 31 31 30 30 30 29 28 28 27 26 26 25 24 24 24 23 23 22 22 22 22 21 21 21 21 22 23 23 23 23 22 22 22 22 21 21 21 21 21 21 22 21 21 21 21 21 21 21 21 20 19 19 19 18 18 18 17 17 17 17
32 32 32 31 31 31 30 30 29 29 28 27 27 26 25 25 24 24 23 23 23 22 22 22 21 21 21 21 21 22 23 23 23 23 22 22 22 22 21 21 21 22 22 22 22 22 21 21 21 21 21 20 20 20 19 19 19 19 18 18 17 17 17
32 32 32 31 31 31 31 30 30 29 29 28 27 26 26 25 24 24 24 23 23 23 22 22 22 21 21 21 21 21 22 23 23 23 22 22 22 22 21 21 22 22 22 22 22 22 21 21 21 21 21 21 20 20 20 20 19 19 19 19 18 17 17
32 32 32 32 32 31 31 30 30 29 29 28 28 27 26 26 25 24 24 24 23 23 23 22 22 21 21 21 21 21 22 22 23 23 23 22 22 22 21 21 22 22 22 22 22 22 21 21 21 21 21 21 20 19 20 20 20 20 20 19 19 18 17
32 32 32 32 32 31 31 30 30 29 29 28 28 27 27 26 25 25 24 24 24 23 23 23 22 22 21 21 21 21 21 22 23 23 23 23 22 22 22 22 22 22 22 22 22 22 22 21 21 21 21 21 20 20 19 20 20 20 20 20 20 19 18
32 32 32 31 31 31 31 30 30 30 29 29 28 27 27 26 25 25 24 24 24 23 23 22 22 22 21 21 21 21 21 22 23 23 23 23 23 22 22 22 23 23 22 22 22 22 22 21 21 21 21 21 21 20 20 19 20 20 20 21 20 20 19
32 32 32 31 31 31 31 30 30 30 29 29 28 27 27 26 26 25 25 24 24 23 23 22 22 22 22 21 21 21 21 22 23 23 23 23 23 22 22 23 23 23 23 23 22 22 22 22 22 21 21 21 21 20 20 20 20 20 20 21 21 21 20
32 32 32 31 31 31 31 31 30 30 29 28 28 28 27 27 26 26 25 25 24 24 23 23 22 22 22 21 21 21 21 21 23 23 23 23 23 23 23 23 23 23 23 23 23 22 22 22 22 21 21 21 21 21 20 20 20 20 20 20 21 21 21
33 32 32 32 32 32 31 31 30 29 29 28 28 28 27 27 26 26 25 25 24 24 24 23 23 22 22 22 21 21 21 21 22 23 23 23 23 23 23 23 23 23 23 23 23 23 22 22 22 22 21 21 21 21 20 20 20 20 20 20 20 21 21
32 32 32 32 31 32 31 31 30 29 29 29 28 28 27 27 26 26 25 25 25 24 24 24 23 22 22 22 21 21 21 21 22 23 23 23 23 23 23 23 23 23 23 23 23 23 23 22 22 22 21 21 21 21 20 20 20 20 20 20 20 20 21
32 32 32 32 31 32 31 31 30 30 29 29 29 28 28 27 26 26 25 25 25 24 24 24 23 22 22 22 21 21 21 21 22 22 23 23 23 24 23 23 23 23 23 23 23 23 23 22 22 22 22 22 22 21 21 20 20 20 20 20 20 20 20
32 32 32 31 31 31 31 31 30 30 30 29 29 28 28 27 27 26 26 25 25 24 24 24 23 23 22 22 22 21 21 21 22 22 23 23 24 24 23 23 23 23 23 23 24 23 23 23 23 22 22 22 22 22 21 21 20 20 20 20 19 20 20
32 32 31 31 32 32 31 31 31 30 30 30 29 28 28 27 27 26 26 25 25 25 24 24 23 23 22 22 22 22 22 22 22 22 23 23 24 24 24 23 23 23 23 23 24 24 23 23 23 23 23 23 22 22 21 21 20 20 19 19 19 19 20
32 31 31 32 32 32 32 31 31 31 30 30 30 29 28 27 27 26 26 25 25 25 25 24 23 23 22 22 22 22 22 23 23 23 23 24 24 24 24 24 23 23 23 23 24 24 24 23 23 23 22 22 22 21 21 20 19 19 19 18 18 19 19
31 30 31 32 32 32 32 32 31 31 31 30 30 29 28 28 27 27 26 26 25 25 25 24 24 23 23 22 22 22 23 23 23 23 23 24 24 23 23 23 23 23 23 23 23 23 23 23 22 22 21 21 21 21 20 19 19 19 18 18 18 18 19
30 30 30 31 31 32 32 32 32 32 31 31 30 29 29 28 27 27 26 26 26 25 25 25 24 24 23 23 23 22 23 23 23 23 23 23 24 24 23 23 23 23 22 22 23 23 22 22 21 21 21 21 20 20 20 19 19 19 19 18 18 18 19
31 31 31 31 31 32 32 32 32 32 32 32 31 30 29 29 28 27 27 26 26 26 25 25 25 24 24 23 23 23 23 23 23 23 23 23 24 23 23 23 23 22 22 22 22 22 22 21 21 21 21 21 20 20 20 20 19 19 19 18 18 18 18
31 31 31 31 32 32 32 32 32 32 32 32 32 31 30 29 28 27 27 27 26 26 26 25 25 25 24 24 24 24 23 23 23 23 23 23 23 23 23 22 22 22 22 22 21 21 21 21 21 21 21 21 20 20 20 20 19 19 19 18 18 18 18
32 31 32 32 32 32 32 32 32 32 32 32 32 31 31 30 28 28 27 27 27 26 26 26 26 25 25 25 24 24 24 24 24 23 23 23 23 23 22 22 22 22 22 22 22 21 21 21 21 21 20 20 20 20 20 20 19 19 18 18 18 18 17
34 33 33 33 33 33 32 32 32 32 32 32 32 31 31 30 29 29 28 27 27 27 26 26 26 26 26 25 25 25 25 25 24 24 24 23 23 23 22 22 22 22 22 22 22 22 22 21 21 21 20 20 20 20 20 20 19 19 18 18 18 17 17
35 34 33 33 33 33 33 33 32 32 32 32 32 31 30 30 30 29 28 27 27 27 27 27 27 27 26 26 26 26 25 25 25 24 24 24 23 22 22 22 22 22 22 22 22 22 22 21 21 21 20 20 20 20 20 20 19 18 18 18 17 17 17
34 34 34 33 33 33 33 33 32 32 32 32 32 31 30 30 30 29 28 28 27 27 27 27 27 27 27 27 27 26 26 25 25 24 24 23 23 22 22 22 22 22 22 22 22 22 22 21 21 21 21 21 20 20 19 19 18 18 17 17 17 17 16
34 34 34 34 33 33 33 33 33 33 32 32 31 31 30 30 30 29 28 28 27 27 28 27 28 28 28 27 27 26 26 25 25 24 24 23 23 23 22 22 22 22 22 22 22 22 22 22 21 21 21 20 19 19 18 18 18 18 17 17 17 17 16
34 34 34 34 33 33 33 33 33 33 32 32 31 31 30 30 29 29 28 28 28 28 28 28 28 28 28 28 27 27 26 26 25 24 24 24 23 23 22 22 22 22 22 22 22 22 22 21 21 21 20 19 18 18 18 18 18 18 17 17 17 17 16
34 33 33 33 33 33 33 33 33 33 32 32 31 30 30 30 29 29 28 28 28 27 28 28 28 28 28 28 28 27 26 25 25 24 24 24 23 23 23 22 22 22 22 22 22 21 21 21 20 20 19 18 18 18 17 17 17 17 17 17 17 16 16
34 33 32 33 33 32 32 32 32 32 31 31 31 31 30 30 29 28 28 28 27 27 27 28 28 28 28 28 28 27 26 25 25 24 24 24 23 23 23 23 23 22 21 21 21 21 20 20 20 19 18 18 17 17 17 17 17 17 17 17 16 16 16
32 32 32 32 32 32 32 31 32 31 31 32 32 31 30 30 29 28 28 28 27 27 27 27 28 28 28 28 27 26 26 25 24 24 23 23 23 23 22 22 22 22 21 21 21 21 20 20 19 18 17 17 17 17 17 17 17 17 17 16 16 15 15
30 30 31 31 32 32 32 32 32 32 31 32 32 30 29 29 28 28 29 28 27 27 27 27 27 28 28 27 26 26 25 24 23 23 23 23 23 22 22 22 22 21 22 22 21 21 20 19 18 17 17 17 17 16 16 16 16 16 16 16 15 15 15
28 28 29 29 30 31 31 31 31 32 31 31 30 29 29 29 28 28 28 27 27 27 26 27 27 27 27 26 25 25 24 23 22 22 23 23 22 22 22 22 22 22 22 22 21 21 20 19 18 17 17 17 16 16 16 16 16 16 16 15 15 14 14
27 27 28 28 28 29 30 29 29 29 29 29 29 29 28 28 28 28 27 27 27 26 26 26 26 26 25 25 24 23 23 22 22 22 22 22 22 22 22 22 22 22 21 21 21 21 20 19 18 17 17 17 16 16 16 16 16 16 15 15 14 14 14
25 26 27 27 27 27 28 28 28 27 26 26 26 28 28 28 28 28 27 26 26 26 26 26 25 25 24 23 22 22 22 22 22 22 22 21 21 21 22 22 22 22 21 21 21 20 19 19 18 17 17 16 16 15 16 16 16 15 15 14 14 14 14
24 25 26 27 26 26 26 27 27 27 26 24 23 24 26 28 28 27 27 26 26 26 26 25 24 23 22 22 21 21 21 21 21 21 21 21 21 22 22 23 23 22 21 21 20 19 18 18 17 17 16 15 15 16 16 16 15 15 15 15 15 14 14
23 24 25 25 26 25 25 25 26 26 26 25 24 23 23 25 27 27 26 26 26 25 25 24 23 22 21 21 21 21 21 21 21 20 20 20 21 21 21 22 22 21 21 21 20 18 17 17 17 17 16 15 16 16 16 16 15 15 15 15 15 15 14
22 23 24 24 24 25 24 24 24 25 25 25 25 24 21 21 23 25 25 25 24 24 23 22 21 21 20 20 20 20 21 21 20 20 19 19 19 19 19 19 19 20 20 20 19 18 17 17 17 16 16 16 16 16 16 16 16 16 16 16 16 15 15
20 21 22 22 22 22 22 22 22 23 23 23 24 24 22 19 19 21 21 21 21 21 21 20 20 19 19 19 19 20 20 20 19 19 19 19 19 19 18 18 18 18 18 18 17 17 17 17 17 16 16 17 16 16 16 16 16 16 16 16 16 16 16
18 19 19 20 20 20 19 20 20 21 21 21 21 21 21 18 17 18 19 19 19 19 19 19 19 19 18 19 19 19 19 19 19 19 19 20 19 19 19 18 18 17 17 17 17 16 16 16 16 16 16 16 16 16 16 17 17 16 16 16 16 16 15
17 17 18 19 20 19 18 18 18 19 19 19 18 18 18 18 17 17 17 18 18 19 19 19 19 19 19 19 19 19 19 19 19 19 19 19 20 20 20 18 17 16 16 16 16 16 16 16 15 15 16 16 16 16 16 16 16 16 16 16 15 15 15
16 17 17 17 19 19 18 17 17 18 18 18 17 17 17 17 18 19 19 19 19 19 20 20 20 19 19 19 19 19 19 19 19 19 19 19 19 19 19 18 17 16 15 15 15 15 15 15 15 15 15 16 16 16 16 16 16 16 16 15 15 15 15

ECMWFFLT1_850_temp_024.txt.gz
Temp
28 28 28 28 28 28 28 28 27 27 26 26 25 25 25 24 24 24 24 23 23 23 23 22 22 22 22 21 21 21 21 21 22 22 22 22 22 22 21 21 21 22 22 21 21 22 22 22 21 21 21 20 20 20 20 20 20 19 18 18 18 18 18
29 28 28 28 28 28 28 28 28 27 27 26 26 25 25 25 24 24 24 23 23 23 23 23 22 22 22 22 21 21 21 21 22 22 22 22 22 22 21 21 22 22 22 22 21 22 22 21 21 21 21 20 20 20 20 20 20 19 19 19 19 18 18
29 29 29 28 28 29 29 29 28 28 27 27 26 26 25 25 25 24 24 24 23 23 23 23 22 22 22 22 21 21 21 21 21 22 22 22 22 22 21 21 22 22 22 22 21 21 21 21 21 21 21 20 20 20 20 20 20 19 19 19 19 19 19
29 29 29 29 29 29 29 29 29 28 28 28 27 27 26 26 25 24 24 24 23 23 23 23 23 22 22 22 22 21 21 21 21 22 22 22 22 22 22 21 22 22 22 22 21 21 21 21 21 21 20 20 20 20 20 20 20 20 19 19 19 19 19
30 30 30 29 29 29 30 30 29 29 28 28 28 27 27 26 25 24 24 24 24 24 24 24 23 23 22 22 22 22 22 22 22 22 22 22 22 22 22 22 22 22 22 22 21 21 21 21 21 21 20 20 20 20 20 20 20 20 19 19 20 20 20
30 30 30 30 30 30 30 30 30 30 29 28 28 27 27 26 25 25 24 24 24 24 24 24 23 23 23 22 22 22 22 22 22 22 22 22 22 22 22 22 22 22 22 22 22 21 21 21 21 21 21 21 20 20 20 20 20 20 20 20 20 20 21
30 30 30 30 30 30 30 30 30 30 29 29 28 27 27 26 25 25 25 25 24 24 23 23 23 23 23 23 22 22 22 22 22 22 22 22 22 22 22 22 22 22 22 22 22 22 22 22 21 21 21 21 21 21 21 21 21 20 20 20 20 21 21
30 30 30 30 30 30 30 30 30 30 29 29 28 27 26 26 26 25 25 25 25 24 24 23 23 23 23 23 22 22 23 22 22 22 21 22 22 22 22 22 22 22 22 22 22 22 22 22 22 22 21 21 21 21 21 21 21 20 20 20 20 20 20
31 31 31 31 31 31 31 30 30 30 29 28 28 28 27 26 26 26 25 25 25 24 24 24 23 23 23 23 23 23 23 23 22 22 21 22 22 22 22 22 22 22 22 22 22 22 22 22 22 22 22 21 21 21 21 21 21 20 20 20 20 20 21
31 31 31 31 31 31 31 31 30 29 29 28 28 27 27 26 26 26 25 25 25 24 24 24 23 23 23 23 23 23 23 23 23 22 21 22 22 22 22 22 22 22 22 22 22 22 22 22 22 22 22 22 21 21 21 21 21 20 20 20 20 20 20
31 31 31 31 31 31 31 30 29 29 29 29 28 28 27 27 26 26 25 25 25 24 24 24 23 23 23 23 23 23 23 23 23 22 22 22 23 23 23 22 22 22 22 22 22 22 22 22 22 22 22 22 22 21 21 21 21 20 20 20 20 20 20
31 31 31 31 31 31 30 30 29 29 29 29 28 28 28 27 26 26 26 25 25 24 24 24 23 23 23 23 22 22 23 23 23 23 23 23 23 23 23 23 22 22 22 22 22 22 22 22 22 22 22 22 22 22 21 21 21 21 21 20 20 19 19
31 31 31 31 31 30 30 30 29 29 29 29 29 28 28 28 27 26 26 25 25 24 24 24 23 23 23 22 22 22 23 23 24 24 24 24 24 24 23 23 23 23 23 23 23 22 22 22 22 22 22 22 22 22 22 21 21 21 20 20 19 19 19
31 31 31 30 30 30 30 30 30 29 29 29 29 28 28 28 27 27 26 26 25 24 24 24 24 23 23 23 22 22 23 23 24 25 25 24 24 24 24 23 23 23 23 23 23 22 22 22 22 22 22 22 22 22 22 21 21 21 20 20 19 19 19
30 30 30 30 30 30 30 30 30 30 30 30 29 28 28 28 27 27 26 26 26 25 24 24 24 23 23 23 23 23 23 23 24 24 25 24 24 24 24 23 23 23 22 22 23 23 23 22 22 22 22 22 22 21 21 21 21 21 21 20 20 19 19
31 30 30 30 30 30 30 30 30 30 31 30 29 29 28 28 27 27 27 26 26 25 25 24 24 24 23 23 23 23 23 23 23 24 24 24 24 24 24 23 23 23 22 22 23 23 22 22 21 21 21 21 21 21 21 21 21 21 21 21 20 20 19
32 32 32 31 31 31 31 30 30 30 31 31 30 29 29 29 28 28 27 27 26 26 25 24 24 24 24 24 24 23 23 23 23 23 24 24 24 24 24 23 23 23 22 22 22 22 22 21 21 21 21 21 21 21 22 22 22 22 21 21 20 19 19
31 32 33 33 32 31 30 30 30 31 31 31 31 30 30 30 29 28 27 27 26 26 25 24 25 24 24 24 24 24 23 23 23 23 23 24 24 24 24 23 22 22 22 22 22 22 21 21 21 21 21 21 21 22 22 22 22 22 21 20 20 19 19
31 31 31 31 30 30 30 30 30 31 32 32 32 31 31 30 29 28 28 27 27 26 25 25 25 25 25 25 24 24 24 23 23 23 23 24 24 24 23 22 22 22 22 21 21 21 21 21 21 21 21 21 21 21 22 22 22 21 21 20 19 19 19
32 31 31 30 30 30 30 30 31 32 33 33 33 32 32 31 30 30 29 28 27 26 26 25 25 25 25 25 24 25 24 24 23 23 24 24 24 23 22 22 22 22 21 21 21 21 21 21 21 21 21 21 21 21 21 21 21 21 20 20 19 19 19
33 33 32 32 31 30 30 31 32 32 33 33 33 32 32 31 30 30 29 28 27 26 26 26 25 25 25 25 25 25 24 24 24 24 24 24 23 22 22 22 22 21 20 20 20 20 21 21 21 21 21 21 21 21 21 21 21 20 20 19 19 19 18
34 34 34 33 33 33 32 32 32 33 33 33 33 32 32 31 31 30 29 28 27 27 26 26 25 25 25 25 25 25 25 24 24 24 24 23 23 22 22 22 21 21 20 20 20 21 21 21 21 21 21 21 21 21 21 21 20 20 19 19 18 18 18
32 33 34 34 33 34 34 33 33 33 33 33 33 32 32 31 31 30 29 28 27 27 26 26 26 25 25 25 25 25 25 25 24 24 24 23 23 23 22 22 22 21 21 20 21 21 21 21 21 21 21 21 21 21 21 20 20 19 19 19 18 18 18
31 31 32 32 32 32 32 32 33 33 33 33 33 32 32 31 30 30 29 28 28 27 26 26 26 26 25 25 25 25 25 25 25 24 24 24 23 23 23 22 22 22 22 22 22 22 22 21 21 21 21 21 21 21 21 20 20 19 19 18 18 18 18
31 31 31 32 32 32 32 32 32 33 33 32 33 33 32 31 30 29 29 29 29 28 27 26 26 26 26 26 26 25 25 25 25 25 24 24 24 23 23 23 23 23 23 22 22 22 22 21 21 21 21 21 21 21 20 20 19 19 18 18 18 18 18
29 30 30 31 31 32 32 33 33 33 32 32 32 32 32 31 31 30 30 30 29 28 27 27 27 27 27 27 26 25 25 25 25 25 25 24 24 24 23 23 23 23 23 22 22 22 21 21 21 21 21 21 20 20 19 19 19 18 18 18 18 18 17
27 28 28 29 30 30 31 32 32 33 33 33 33 32 32 32 32 31 31 31 29 28 29 29 28 28 28 27 26 25 25 25 25 25 25 24 24 23 24 23 23 23 23 22 22 21 21 21 21 21 20 20 20 20 19 19 18 18 18 18 18 17 17
27 28 28 28 29 30 31 31 31 32 32 32 32 32 32 32 32 32 32 31 30 30 30 29 29 28 27 27 26 26 26 25 25 25 24 24 23 23 23 23 23 23 22 22 22 21 21 21 21 20 20 20 19 19 19 18 18 18 17 17 17 17 17
26 27 27 27 28 29 30 30 31 31 31 30 30 30 29 29 29 30 30 30 31 31 30 29 28 27 27 26 26 26 26 25 25 24 24 23 23 23 23 23 22 22 22 22 21 21 21 21 20 20 20 19 19 18 18 17 17 17 17 17 17 16 16
24 25 25 26 26 27 28 29 29 29 29 29 29 28 28 28 28 28 27 27 28 28 27 27 27 27 26 26 26 26 26 26 25 24 24 23 23 22 23 23 22 21 21 21 21 21 21 20 20 20 19 18 18 17 17 17 17 17 17 17 16 16 15
23 23 24 24 24 25 26 27 28 27 27 28 28 28 27 27 27 27 27 26 26 26 25 25 26 26 26 26 26 26 26 26 25 24 24 23 22 22 22 22 21 21 21 21 21 21 20 20 20 19 18 18 17 17 17 16 16 16 16 16 15 15 15
22 22 23 24 24 25 25 25 26 26 26 26 26 26 26 26 26 26 26 26 26 26 25 24 24 25 26 26 26 26 25 25 24 23 22 21 21 21 21 21 20 20 20 20 20 19 19 20 19 18 18 17 17 17 17 16 16 16 16 15 15 14 14
20 21 21 22 23 23 24 24 25 26 26 25 25 26 26 26 26 26 26 26 25 25 25 24 24 24 24 24 24 24 23 23 22 21 20 20 20 20 20 20 20 20 20 20 19 18 18 19 19 18 18 17 17 17 17 16 16 16 16 15 14 13 14
18 18 19 19 20 21 23 23 23 24 25 25 25 26 25 25 26 26 26 26 25 25 25 25 23 22 21 21 21 21 20 20 20 20 20 20 20 20 20 21 21 21 21 21 20 19 19 20 19 18 18 18 17 17 16 16 16 16 16 15 14 14 14
17 17 17 18 18 20 21 21 21 22 23 23 24 25 25 25 25 25 25 25 26 26 26 25 24 22 21 20 20 20 20 20 20 20 20 20 20 21 21 21 21 21 20 19 19 19 20 20 19 18 18 18 18 18 17 17 17 17 16 15 15 15 15
16 17 17 17 17 18 19 19 19 20 20 21 22 22 23 23 23 24 24 25 25 26 25 24 23 23 22 20 20 20 19 19 19 20 20 21 21 21 20 20 20 20 19 18 18 18 18 18 18 18 18 18 18 18 18 18 17 16 15 15 15 15 16
16 16 16 16 16 17 17 17 18 18 19 19 19 20 21 22 22 23 23 23 23 23 22 21 20 20 19 18 18 18 19 19 20 21 20 20 20 20 20 19 18 18 17 17 17 17 17 17 18 18 18 18 18 17 17 17 16 16 15 15 15 15 15
16 16 15 15 16 16 16 16 17 17 18 18 18 18 19 19 20 20 21 21 20 19 19 18 17 16 16 15 15 16 18 19 20 20 19 19 19 19 19 19 18 17 16 16 17 17 17 17 17 17 17 17 17 16 16 15 15 15 15 15 15 15 15

ECMWFFLT1_850_temp_030.txt.gz
Temp
24 24 24 24 24 24 24 24 24 24 24 24 23 23 23 22 22 23 23 23 23 23 23 23 23 23 23 23 23 22 22 22 22 22 22 22 22 22 22 22 22 22 22 22 22 21 21 21 21 21 20 20 20 20 20 19 20 20 20 20 20 20 19
25 25 24 24 24 24 24 24 24 24 24 24 24 24 23 23 23 23 23 23 23 24 23 23 23 23 23 23 23 23 22 22 22 22 22 22 21 22 22 22 22 22 22 22 22 22 21 21 21 21 21 20 20 20 20 20 20 20 20 20 20 20 20
26 25 25 25 25 25 25 24 24 24 24 24 24 24 24 24 24 24 24 24 24 24 24 23 23 23 23 23 23 23 22 22 22 22 22 22 22 22 22 22 22 22 22 22 22 22 22 21 21 21 21 20 20 20 20 20 20 20 20 20 20 20 20
26 26 26 25 25 25 25 25 25 25 25 24 25 25 25 26 25 25 24 24 24 24 24 24 24 23 23 23 23 23 23 22 22 22 22 22 22 22 21 21 21 22 22 22 22 22 22 21 21 21 20 20 20 20 20 20 20 21 20 20 20 20 20
27 27 26 26 25 25 25 25 25 25 25 25 25 25 25 26 25 24 24 24 24 25 25 25 25 24 24 23 23 23 23 23 22 22 22 22 22 21 21 21 22 22 22 22 22 22 22 22 21 21 21 20 20 20 20 20 20 20 20 20 20 20 20
27 27 27 26 26 26 26 25 25 26 26 26 25 25 25 25 24 24 24 24 24 24 25 25 24 24 24 24 23 23 23 23 23 22 22 22 22 21 21 21 22 22 22 22 22 22 22 22 21 21 21 20 20 20 20 20 20 20 20 20 20 20 20
28 28 27 27 26 26 26 26 26 26 26 26 26 25 25 24 24 24 24 24 24 24 24 24 24 24 24 24 24 23 23 23 23 22 22 22 22 22 22 22 22 22 22 22 22 22 22 22 22 21 21 20 20 20 20 20 20 20 20 20 20 20 21
29 28 28 28 27 27 26 26 26 26 26 26 25 25 24 24 24 24 24 24 24 24 24 25 25 25 25 24 24 24 24 23 23 23 23 22 22 22 22 22 22 22 21 21 22 22 22 22 22 22 21 21 20 20 20 20 20 20 20 20 20 20 21
29 29 29 28 28 27 27 27 27 26 26 26 25 25 25 24 24 24 24 24 24 24 25 25 25 25 25 24 24 24 24 23 23 23 23 23 22 22 22 22 22 22 21 21 22 22 22 22 22 22 22 21 21 21 21 20 20 20 20 20 20 20 21
29 28 28 28 27 27 27 27 27 26 26 26 25 25 25 25 25 24 24 24 24 25 25 25 25 25 24 24 24 24 24 23 23 23 23 23 23 22 22 22 22 22 22 21 21 22 22 22 22 22 22 21 21 21 21 21 21 20 20 21 20 20 20
29 28 28 28 27 27 27 27 27 27 26 26 26 26 25 25 25 25 25 24 24 25 25 25 24 24 24 24 24 24 24 24 23 23 23 23 23 23 22 22 22 22 22 21 21 21 22 22 22 22 22 22 21 21 21 21 21 21 21 21 21 21 20
29 29 29 28 28 28 27 27 27 27 27 27 26 26 26 25 25 25 25 25 25 26 25 25 24 24 24 24 24 24 24 24 24 23 23 23 23 23 23 23 22 22 22 21 21 21 22 22 22 22 22 22 22 22 21 21 21 21 21 21 21 21 20
29 29 29 29 29 28 28 28 28 28 27 27 27 27 26 26 26 26 26 25 25 25 25 25 25 24 24 24 24 24 24 24 24 24 23 23 23 23 23 23 23 22 22 21 21 21 22 22 22 22 23 23 22 22 22 21 21 21 21 21 21 21 20
28 28 29 29 29 28 28 28 28 28 28 27 27 27 27 27 26 26 26 26 26 25 25 25 25 24 24 24 24 24 25 25 25 24 24 24 24 23 23 23 23 23 22 22 22 21 22 22 23 23 23 23 23 22 22 22 21 21 21 21 21 21 21
29 29 29 29 29 29 29 29 28 28 28 28 28 27 27 27 27 26 26 26 26 25 25 25 25 25 24 24 24 25 25 25 24 24 24 24 24 23 23 24 23 23 22 22 22 22 22 22 23 23 23 23 23 23 22 22 22 22 22 21 21 21 21
30 29 29 29 29 29 29 29 29 29 29 29 28 28 27 27 27 27 27 27 26 26 26 25 25 25 25 25 25 26 26 25 24 24 24 24 24 24 24 24 23 23 23 23 22 22 22 22 23 23 23 23 23 23 23 22 22 22 22 22 22 21 21
31 31 30 31 30 30 29 30 30 29 29 29 29 28 28 28 28 28 28 27 27 26 26 25 25 25 25 25 26 26 25 25 24 24 24 24 24 24 24 24 23 23 23 23 23 23 22 22 23 23 23 23 23 23 23 23 23 23 23 22 22 22 21
32 32 32 32 32 31 30 30 30 30 29 29 29 29 29 29 28 28 28 27 27 27 26 25 25 25 26 26 26 25 25 24 24 23 23 24 24 24 24 24 24 24 23 23 23 23 23 23 23 23 23 23 23 23 23 23 23 23 23 23 22 22 21
32 32 32 33 32 31 31 30 30 30 30 30 29 29 30 30 29 29 29 29 28 27 26 26 26 26 26 26 25 25 25 24 24 23 23 23 23 23 23 24 24 24 24 24 24 23 23 23 23 23 23 23 23 24 24 24 24 24 23 23 22 22 21
31 31 31 32 32 32 31 30 30 30 30 30 30 30 30 29 29 30 30 29 28 27 26 27 26 26 26 26 25 25 25 24 24 24 23 23 23 23 23 24 24 24 24 24 24 23 23 23 23 23 23 23 24 24 24 24 24 24 24 23 23 22 22
30 30 31 32 33 32 31 30 30 30 30 31 30 30 29 29 29 29 29 28 28 27 27 27 27 27 26 26 25 25 24 24 24 24 23 23 23 23 23 24 24 24 24 24 24 24 23 23 23 23 23 23 23 23 24 25 25 24 24 23 23 22 21
29 29 30 31 31 32 31 31 30 30 30 30 30 30 29 29 29 28 28 28 28 27 27 26 26 26 26 25 25 25 24 25 24 23 23 22 22 22 23 23 24 24 24 24 24 24 23 23 23 23 23 23 23 23 24 25 25 24 24 23 23 22 21
27 27 28 28 29 30 30 31 31 30 29 29 29 29 29 29 28 28 27 27 27 27 26 25 25 26 26 26 25 25 24 24 24 23 23 22 22 22 23 23 24 24 24 24 24 23 23 23 23 22 22 22 22 24 24 25 25 24 24 24 23 22 21
25 25 26 26 28 29 29 29 30 29 28 29 29 29 29 28 28 27 27 26 27 26 26 26 26 26 26 26 26 25 24 24 24 24 24 24 24 24 24 24 24 24 24 24 24 23 23 23 23 22 22 22 23 24 24 24 24 24 24 23 23 22 21
24 24 25 26 27 28 28 28 29 28 28 28 29 29 29 28 28 27 27 27 27 27 27 27 28 28 28 27 27 26 24 24 24 24 24 25 25 25 25 25 24 24 24 24 24 24 23 23 22 22 21 22 23 23 23 23 24 24 23 23 22 21 21
23 24 25 26 27 28 28 28 29 29 28 28 28 28 28 28 27 27 27 27 26 27 28 29 29 29 29 28 27 26 25 25 25 25 25 25 25 25 25 24 24 24 23 23 23 23 23 22 22 21 21 22 22 22 22 22 22 23 22 22 21 21 20
23 24 24 25 26 27 28 28 29 29 28 28 27 27 27 27 27 26 26 26 26 27 28 29 29 29 28 27 27 26 26 26 26 26 27 27 26 25 25 25 24 24 23 23 22 22 22 22 22 21 21 21 21 22 22 22 22 22 22 22 21 21 20
23 24 24 25 25 26 27 28 28 28 28 27 27 27 27 26 27 26 26 26 27 28 28 28 27 27 27 26 26 26 25 25 26 26 26 26 25 25 25 25 24 24 23 22 22 21 21 21 22 21 21 21 21 21 21 21 21 22 22 21 21 20 20
24 24 24 25 25 26 26 27 27 27 27 27 27 27 26 26 26 26 26 27 27 28 27 27 27 26 26 26 26 26 25 25 25 25 25 25 24 24 24 25 25 24 24 23 22 21 20 20 21 21 21 21 20 21 21 21 21 21 21 21 20 20 20
23 24 24 25 25 25 25 26 26 26 26 26 26 26 26 26 25 25 26 26 27 27 26 26 26 26 26 26 26 26 26 25 25 25 25 24 24 24 24 24 24 24 24 24 23 22 21 20 20 20 20 20 20 21 20 20 20 20 21 20 20 20 19
22 23 23 24 24 24 25 25 25 24 24 24 24 24 25 25 25 25 25 25 25 25 25 26 26 26 26 26 26 25 25 25 24 24 24 24 24 23 24 24 23 23 23 23 24 23 23 22 20 20 20 20 21 21 20 19 19 20 20 20 19 19 19
22 23 23 24 24 24 24 24 24 24 24 24 24 24 24 24 24 24 24 24 24 24 24 25 25 25 25 25 26 25 25 25 24 24 24 24 23 23 24 24 24 23 22 21 22 22 23 22 21 20 20 20 21 21 20 20 20 20 20 19 19 18 18
23 23 24 24 24 24 24 24 24 24 24 24 24 25 25 24 24 24 24 23 23 23 24 24 24 24 24 24 24 25 25 25 25 24 24 24 23 23 23 23 23 23 23 22 21 20 20 20 20 20 20 20 20 21 21 21 20 20 20 19 18 18 18
22 22 23 23 24 24 24 24 24 24 24 24 24 24 25 25 25 25 25 24 24 24 23 23 23 23 23 23 23 23 24 24 24 24 24 24 23 23 23 22 22 22 22 22 22 21 20 19 19 19 20 20 20 21 21 20 20 20 20 19 18 18 18
21 21 22 22 22 23 23 23 23 23 23 23 23 24 24 24 25 25 25 25 25 24 23 23 23 23 22 22 22 22 22 23 23 23 24 24 23 23 23 23 22 22 22 23 23 23 23 22 21 19 19 18 19 19 20 20 20 20 19 19 18 19 19
19 20 20 21 21 22 22 22 21 21 22 22 22 23 23 23 24 24 24 24 24 24 23 23 23 23 22 22 22 22 22 22 22 22 22 22 22 23 23 22 22 22 22 23 23 23 23 23 22 21 20 19 19 19 20 21 21 20 19 18 18 18 19
17 18 18 19 19 19 19 19 19 19 20 20 21 21 21 22 22 22 23 23 23 23 23 23 23 23 22 22 21 21 21 21 22 22 21 21 20 20 20 21 21 21 21 21 22 22 22 22 22 22 21 21 21 21 21 21 21 20 19 18 18 18 18
16 17 17 18 18 18 18 18 18 19 19 19 19 19 20 20 20 20 21 21 22 22 22 22 22 22 22 22 21 21 20 20 20 21 20 20 20 19 18 19 19 20 21 20 20 20 20 21 21 20 20 20 21 21 21 21 20 19 19 18 17 17 17

ECMWFFLT1_850_temp_033.txt.gz
Temp
25 24 24 23 23 23 24 25 25 25 25 24 24 24 24 24 24 24 24 23 23 23 23 22 22 22 22 23 23 23 23 23 23 23 23 23 23 23 23 23 23 22 22 22 22 22 22 22 22 21 21 21 21 21 20 20 20 20 19 19 19 19 20
25 25 24 24 23 23 24 25 26 26 26 26 25 24 24 24 25 25 25 24 24 23 23 23 22 22 23 23 23 23 23 23 22 22 22 22 22 23 23 23 23 23 22 22 22 22 22 22 22 22 21 21 21 21 21 20 20 20 20 20 19 20 20
26 25 25 24 24 24 24 24 25 26 27 27 26 26 25 25 26 26 25 25 25 24 23 23 23 23 23 23 23 23 23 23 23 22 22 22 22 22 22 22 22 22 22 22 22 22 22 22 22 22 22 21 21 21 21 21 20 20 20 20 20 20 20
26 26 25 25 25 24 24 24 24 25 26 27 27 27 27 28 27 26 26 25 25 25 24 24 24 23 23 23 23 23 23 23 23 23 23 22 22 22 22 22 22 22 22 22 22 22 22 22 22 22 22 22 21 21 21 21 21 20 20 20 20 20 21
27 26 26 25 25 24 24 24 25 25 25 26 27 28 28 28 27 27 26 26 25 25 25 25 24 23 23 23 23 23 23 23 23 23 23 23 22 22 22 22 22 22 22 22 22 22 22 22 22 22 22 22 22 21 21 21 21 20 20 20 20 21 21
27 26 26 26 25 25 25 25 25 25 25 26 26 27 28 28 27 27 27 26 26 25 25 24 24 24 24 24 23 23 23 23 23 23 23 23 23 22 22 22 22 22 22 22 22 22 22 22 22 22 22 22 22 22 21 21 21 20 20 20 20 21 21
28 27 27 27 26 26 25 25 25 25 25 25 26 26 27 26 26 27 26 26 26 26 25 25 24 24 24 24 23 23 23 23 23 23 23 23 23 23 22 22 22 22 22 22 22 22 22 22 22 22 22 22 22 22 22 21 21 21 20 20 20 21 21
29 29 28 28 28 27 26 26 25 25 25 25 25 25 25 25 25 26 26 26 27 26 26 26 25 25 25 25 24 24 24 23 23 23 23 23 23 23 22 22 22 22 22 22 22 21 21 22 22 22 22 22 22 22 22 22 21 21 21 20 20 21 21
29 28 28 28 27 27 26 25 25 25 25 25 25 25 25 24 25 25 26 26 26 26 27 27 26 26 26 26 25 25 25 24 24 24 24 23 23 23 23 23 23 22 22 22 22 22 22 22 22 22 22 22 22 22 22 22 22 21 21 21 20 21 21
29 28 28 27 27 27 26 26 25 25 25 25 25 25 25 25 25 25 25 26 26 27 27 27 26 26 27 27 26 25 25 25 25 24 24 23 23 23 23 23 23 23 23 22 22 22 22 22 22 22 22 22 22 22 22 22 22 22 21 21 20 21 21
28 28 28 27 27 27 27 26 26 26 26 26 25 25 25 25 25 25 25 25 26 27 27 26 26 26 27 26 26 25 25 25 25 25 24 24 23 24 24 23 23 23 23 23 22 22 22 22 22 22 22 22 22 22 22 22 22 22 22 21 21 21 21
28 28 28 28 28 27 27 27 27 27 26 26 26 26 25 25 25 25 25 25 26 27 26 26 26 26 26 26 25 25 26 26 25 25 25 24 24 24 24 24 24 24 24 23 23 22 22 22 22 22 22 22 23 23 23 22 22 22 22 22 21 21 21
29 29 29 29 28 28 27 27 27 27 27 27 26 26 26 26 26 26 26 26 26 26 26 26 26 26 26 26 26 26 26 26 26 26 25 25 25 25 25 25 24 24 24 24 23 23 23 22 22 23 23 23 23 23 23 23 22 22 22 22 22 22 21
30 30 31 30 30 29 28 28 28 27 27 27 27 27 27 26 26 26 27 27 27 26 25 26 26 26 26 26 26 26 26 26 26 26 26 26 26 25 25 25 25 24 24 24 24 23 23 23 23 23 23 23 23 23 23 23 23 22 22 22 22 22 21
31 31 32 32 31 31 30 29 29 28 28 27 27 27 27 27 26 26 26 27 26 26 26 26 26 27 26 26 26 27 27 27 26 26 26 26 25 25 25 25 25 25 24 24 24 24 23 23 23 23 23 23 23 23 23 23 23 23 23 22 22 22 22
30 31 32 32 32 32 31 30 30 29 28 28 27 27 27 27 27 27 27 27 27 27 26 26 27 27 26 26 27 27 27 26 26 26 26 25 25 25 25 25 25 25 24 25 24 24 23 23 23 22 23 23 23 23 23 23 23 23 23 23 23 22 22
31 32 32 32 33 32 31 30 30 29 28 28 28 28 27 27 27 27 27 27 27 27 27 26 27 27 26 27 28 27 26 26 25 25 25 25 24 24 25 25 25 25 25 25 24 24 23 23 23 23 22 23 23 23 23 23 23 23 23 23 23 23 22
32 32 32 32 32 32 32 31 30 30 29 29 28 28 28 28 28 27 27 27 28 28 27 27 27 27 27 27 27 26 26 26 25 25 25 25 24 24 24 24 24 25 25 25 25 24 24 23 23 23 22 22 23 23 23 23 24 23 23 23 23 23 22
32 32 32 32 32 32 32 32 31 31 30 30 29 29 29 28 28 28 28 28 28 28 27 27 27 27 27 27 26 26 26 25 25 25 25 24 24 24 24 24 24 25 25 25 25 24 24 24 23 23 22 22 23 23 23 24 24 24 23 23 23 23 22
31 31 32 31 32 32 32 32 32 31 31 30 30 29 29 28 28 29 29 28 28 27 27 27 27 27 27 26 26 26 25 25 25 25 24 24 24 23 23 24 24 24 24 24 24 24 24 24 23 23 23 22 23 23 23 24 24 24 24 23 23 23 23
30 30 31 31 32 32 32 31 32 32 32 31 30 28 28 28 29 29 28 28 27 27 27 27 27 27 27 26 25 25 24 24 24 24 24 24 23 23 23 23 24 24 24 24 24 24 24 24 24 23 23 23 23 23 23 24 24 24 24 24 24 23 23
29 29 30 31 31 32 32 31 32 32 32 30 30 29 29 29 28 28 28 27 27 27 27 27 27 26 25 25 25 25 24 24 24 23 23 23 23 23 23 23 23 23 23 24 24 24 24 24 23 23 23 23 23 23 23 24 24 25 24 24 24 23 23
28 29 29 30 31 31 31 31 31 31 30 30 30 30 29 28 28 27 27 27 27 27 27 27 27 26 26 25 25 25 24 24 24 24 24 23 23 24 24 24 24 24 24 24 24 24 24 24 23 23 23 23 23 23 23 24 24 25 25 24 24 23 23
27 28 28 29 30 30 29 29 30 30 30 30 30 30 29 28 27 27 27 27 28 28 27 27 27 27 26 25 25 25 25 25 25 25 25 25 25 25 25 25 25 24 24 24 24 24 24 23 23 23 24 24 24 24 23 23 24 25 24 24 24 23 23
25 26 27 28 28 28 28 29 29 30 30 29 30 30 29 27 27 27 27 27 27 27 27 28 28 28 27 26 26 26 27 26 26 25 25 25 25 25 25 25 25 25 24 24 24 24 24 24 23 24 25 24 24 24 24 24 24 24 24 24 24 23 23
24 24 26 26 27 27 28 29 29 29 29 29 29 29 28 27 27 27 27 27 27 27 28 28 28 28 27 27 27 27 27 27 26 25 25 25 25 25 25 25 25 25 24 24 23 23 23 24 24 25 25 24 24 24 24 24 24 24 24 23 23 23 22
23 24 25 26 27 27 28 28 29 28 28 28 28 28 28 27 27 27 26 26 26 27 28 28 27 27 26 26 26 25 26 26 25 25 25 25 25 25 25 25 24 24 24 23 23 22 22 22 23 23 24 24 23 23 24 24 24 24 24 23 23 23 22
22 23 23 24 26 27 27 28 28 27 27 28 28 28 27 27 26 26 26 26 26 26 27 26 26 26 26 26 26 25 25 25 25 25 25 24 24 24 24 24 23 23 23 23 22 22 21 21 20 20 22 23 23 23 24 24 24 24 24 24 23 23 22
20 21 22 23 24 25 26 27 27 26 26 26 26 27 27 26 25 25 25 25 25 25 25 26 26 26 26 26 26 26 26 26 26 25 25 25 24 24 23 23 23 23 22 22 22 21 21 20 20 19 20 21 23 24 24 25 25 24 24 24 24 23 22
18 20 22 23 23 23 24 25 26 25 25 25 25 25 26 25 25 24 24 24 24 25 25 25 25 25 25 25 25 26 26 25 25 25 25 25 25 24 23 23 22 22 22 22 22 21 21 20 20 19 19 19 20 21 22 23 25 25 24 24 24 23 23
17 19 21 22 22 23 23 24 25 25 24 24 24 24 25 25 24 24 24 24 24 24 24 24 24 24 24 24 25 25 25 25 24 24 24 24 24 23 23 23 22 22 22 22 22 21 20 20 20 21 21 20 20 19 20 21 23 24 24 24 23 23 22
16 17 19 20 21 22 22 23 24 24 24 24 24 24 24 24 24 24 24 24 24 24 24 24 24 24 24 24 24 24 24 24 24 24 23 23 23 23 23 23 23 22 22 22 22 21 21 21 20 21 21 22 21 20 19 19 20 21 22 22 22 22 21
15 16 17 18 20 21 22 22 23 23 24 24 24 24 24 24 24 24 24 24 24 24 24 24 24 24 24 23 23 23 23 23 23 23 23 23 23 22 22 22 22 22 22 21 21 21 21 21 20 20 20 21 21 20 19 19 19 20 20 20 21 20 20
15 15 16 16 17 19 21 22 22 22 23 23 23 23 23 23 23 23 23 23 23 23 24 24 24 23 23 23 22 22 22 22 22 22 22 22 22 22 22 22 22 22 22 22 22 22 21 21 20 20 20 20 19 19 19 19 20 21 22 22 21 20 19
15 15 15 15 16 17 19 20 21 21 22 21 21 21 21 22 22 22 22 22 23 23 23 23 23 23 23 22 22 22 22 22 22 22 21 21 21 21 21 21 21 21 21 21 21 21 21 21 21 21 21 20 20 20 20 20 22 24 25 24 23 22 20
15 15 15 15 15 16 17 19 20 20 20 20 20 20 20 20 20 21 21 21 22 22 22 22 22 22 22 22 21 21 21 21 21 21 21 21 21 21 21 20 20 20 19 20 20 19 20 20 20 20 20 20 21 21 22 22 23 24 24 23 23 22 21
16 16 15 15 16 16 17 18 18 19 19 19 19 19 19 19 20 20 20 21 21 21 21 21 22 21 21 21 21 21 21 20 20 20 21 20 20 20 20 20 20 20 19 19 19 19 19 19 19 19 19 19 20 20 21 22 22 21 20 20 21 20 19
16 17 17 17 17 17 18 18 18 18 18 18 18 18 18 18 19 19 19 19 19 20 20 20 21 21 21 21 20 20 20 20 20 20 20 20 19 19 19 19 19 19 19 19 19 19 19 19 19 19 19 19 19 19 19 20 20 20 19 19 20 20 19

ECMWFFLT1_850_temp_036.txt.gz
Temp
30 30 29 28 27 26 26 25 24 24 24 23 24 24 23 23 23 23 24 25 25 25 25 24 23 23 23 23 23 23 23 23 22 23 23 23 23 22 23 23 23 23 23 23 23 22 22 22 22 22 22 22 22 22 21 21 21 21 20 20 20 20 19
31 30 29 28 27 26 26 25 24 24 24 24 25 25 24 24 24 24 25 26 26 26 25 25 24 24 23 23 23 23 23 23 23 23 22 23 23 23 23 23 23 23 23 23 23 23 22 22 22 22 22 22 22 22 22 21 22 21 21 20 20 19 19
32 31 30 29 28 27 26 26 25 24 24 24 25 25 26 26 26 26 26 26 26 26 26 25 25 25 24 23 23 23 23 23 22 23 23 23 24 23 23 23 23 23 23 23 23 23 23 22 22 22 22 22 21 21 21 22 22 22 21 21 20 19 18
31 31 31 29 28 27 26 26 25 25 25 25 26 27 27 27 27 27 26 26 27 26 26 26 25 25 25 24 24 23 23 23 22 23 23 23 24 23 23 23 23 23 23 23 23 23 23 23 23 22 22 22 21 21 21 22 22 21 21 21 20 20 19
31 31 31 30 29 28 27 26 26 25 25 26 26 28 28 28 28 27 27 27 27 27 27 26 26 26 25 25 24 24 24 23 23 23 23 23 23 23 23 23 23 23 23 23 23 23 23 23 23 23 22 22 22 21 22 22 22 22 21 21 21 20 19
32 31 31 30 29 28 27 27 26 26 26 26 26 26 27 27 27 27 27 27 27 27 27 27 26 26 26 25 25 25 24 24 23 23 22 23 23 23 23 23 23 23 23 23 23 23 23 23 23 23 23 23 22 22 22 22 22 22 22 21 21 21 20
33 31 30 30 30 29 28 27 27 27 26 26 26 25 25 25 26 26 26 27 27 27 27 27 27 27 26 26 26 25 25 24 24 23 23 23 23 23 23 23 23 23 23 23 22 22 23 23 23 23 23 23 23 22 22 22 22 22 22 21 21 22 21
33 32 31 30 30 30 29 28 28 27 27 26 26 26 25 25 25 25 25 26 27 27 27 27 27 27 27 26 26 26 25 25 25 24 24 24 23 23 23 23 23 23 23 22 22 22 22 23 23 23 23 23 23 22 22 22 22 22 22 22 22 21 22
33 32 30 30 30 30 30 29 28 28 27 26 26 26 26 25 25 25 25 26 26 26 27 27 27 27 27 27 27 27 26 26 25 25 25 24 24 24 24 24 24 23 23 23 23 22 22 23 23 23 23 23 23 23 22 22 22 22 22 22 22 21 22
33 31 30 30 30 30 30 29 28 27 27 27 26 26 26 26 26 26 26 25 25 26 27 28 26 26 27 28 27 27 27 26 26 26 25 25 25 24 24 24 24 24 24 23 23 23 23 23 22 23 23 22 22 22 22 22 22 22 22 22 22 22 21
31 30 29 29 29 29 29 29 28 27 27 27 26 26 26 26 26 26 26 26 26 26 27 27 26 26 27 28 28 27 27 27 26 26 26 25 25 25 25 24 24 24 24 24 23 23 23 23 23 22 22 22 22 22 22 22 22 22 22 22 22 22 21
29 29 29 29 29 28 28 28 28 27 27 27 26 26 26 26 26 26 26 26 26 26 26 26 25 25 27 28 28 28 28 28 27 26 26 26 25 25 25 25 24 24 24 24 24 23 23 23 23 23 22 22 22 22 22 22 22 22 22 22 22 22 22
29 29 29 29 29 28 28 28 28 28 28 27 26 26 26 26 26 26 26 26 26 26 26 25 25 25 26 27 27 28 28 28 28 28 27 26 26 25 25 25 25 24 24 24 24 24 23 23 23 23 22 22 22 22 22 22 22 22 22 22 22 22 22
30 29 29 30 30 30 30 30 29 29 28 27 26 26 26 26 26 26 26 25 25 26 26 25 25 25 25 26 26 27 28 29 28 28 28 27 26 26 26 26 25 25 24 25 25 25 24 24 23 23 23 23 22 22 22 22 22 22 22 23 22 22 22
31 31 30 30 31 31 31 31 30 30 29 27 27 26 26 26 26 26 25 25 25 25 26 25 24 25 25 25 26 27 28 28 28 28 28 27 27 27 27 26 26 25 24 25 25 25 25 24 24 24 23 23 23 23 22 22 22 22 23 23 23 22 22
32 33 32 31 31 31 31 31 31 30 30 29 27 26 26 26 25 25 25 25 25 25 25 25 25 25 25 25 26 27 27 27 27 27 28 27 27 27 27 27 26 25 25 25 25 25 25 25 24 24 24 23 23 23 23 23 23 23 23 23 23 23 22
32 32 32 32 31 31 31 32 32 31 31 30 29 27 26 26 26 26 26 26 25 25 25 25 25 25 25 26 26 26 26 26 27 27 27 27 27 27 27 27 26 25 25 25 25 25 25 25 24 24 24 24 24 23 23 23 23 23 23 23 23 23 22
32 31 32 33 32 31 31 32 31 32 32 31 31 29 28 27 26 26 26 26 26 25 25 25 25 25 25 26 26 25 26 27 27 27 27 27 26 26 26 26 26 25 24 24 24 25 25 24 24 24 24 23 24 24 23 23 23 24 24 24 23 23 23
32 32 32 32 32 31 31 31 31 31 31 31 31 31 29 28 27 27 27 26 26 26 26 25 25 25 25 25 25 25 26 27 27 27 26 26 26 25 25 26 25 25 24 24 24 24 24 24 24 24 24 23 24 24 24 23 23 24 24 24 24 23 23
31 31 31 31 31 31 31 31 31 31 31 31 31 30 29 29 28 28 28 27 26 26 26 25 25 25 25 25 25 25 26 27 27 26 26 26 25 25 25 25 25 25 24 23 23 24 23 23 24 24 24 24 24 24 24 23 23 24 24 24 24 24 23
30 30 30 30 30 30 30 31 31 31 31 31 30 29 29 29 29 27 27 26 26 26 26 25 25 24 25 25 26 26 27 27 27 26 25 25 25 24 24 24 25 25 24 23 23 23 23 23 24 24 24 24 23 23 24 24 23 24 24 24 24 24 24
30 30 29 29 29 29 30 30 31 31 31 31 30 30 29 28 28 27 26 26 26 26 26 26 25 25 25 26 27 28 28 28 27 26 26 25 25 24 25 25 25 25 25 24 23 23 23 23 23 24 24 23 23 23 24 24 24 24 24 25 24 24 23
29 28 28 28 29 29 30 30 30 30 30 30 30 30 29 28 27 27 27 26 26 26 26 26 26 26 27 27 28 29 28 28 28 27 26 26 25 25 26 26 26 26 25 24 24 23 23 23 24 24 24 24 24 24 24 24 24 24 24 25 25 24 24
26 26 26 27 28 28 28 29 29 29 30 30 30 30 29 28 27 27 27 26 26 26 25 26 27 28 28 28 28 28 28 27 27 27 27 27 27 27 27 27 26 26 25 24 24 24 24 24 24 24 24 25 25 25 24 24 24 24 24 25 25 25 25
24 24 24 25 25 26 27 28 29 29 29 29 29 30 30 28 27 27 26 26 26 26 25 26 28 28 28 28 27 27 27 28 28 28 27 27 28 28 27 27 26 25 25 24 24 23 23 23 23 23 23 23 23 22 22 22 22 23 24 25 25 25 25
23 23 23 23 23 25 26 27 27 27 27 28 29 30 29 28 27 26 26 26 26 26 26 26 27 27 27 27 26 27 28 28 28 28 28 28 28 27 27 26 26 25 25 25 24 23 22 22 22 22 22 22 21 21 21 21 20 21 22 24 25 25 25
21 21 22 22 23 25 25 24 24 24 25 28 29 29 28 27 26 25 25 25 25 26 26 25 25 26 26 27 27 27 28 28 28 28 27 27 27 26 25 25 25 25 25 24 23 23 22 22 21 21 21 21 21 21 21 21 20 20 20 22 24 24 24
20 20 20 21 23 23 22 22 22 22 23 26 27 27 27 26 25 24 25 26 26 26 25 25 25 26 27 27 27 27 27 27 27 26 26 26 25 25 25 24 24 24 23 23 22 22 21 21 21 20 20 20 20 20 20 20 20 20 20 20 22 23 24
19 19 19 20 21 21 21 21 21 21 23 24 26 26 26 25 24 24 24 25 26 26 25 24 25 26 26 26 26 26 26 26 26 26 25 25 25 25 24 24 24 23 23 22 21 21 20 20 20 20 20 20 20 20 20 20 20 19 19 20 21 22 23
18 18 18 18 18 19 20 20 20 21 22 24 25 26 26 25 24 24 23 24 25 25 24 24 25 26 26 26 25 25 25 25 25 25 25 25 24 24 24 24 23 23 23 22 22 21 20 20 20 20 20 20 20 20 20 20 20 19 19 21 22 23 23
18 18 18 18 17 18 18 18 18 19 20 22 24 25 25 25 25 24 24 24 25 25 25 25 25 25 25 25 24 24 25 25 25 25 24 24 24 24 24 24 23 23 22 22 21 21 20 20 21 20 20 20 20 20 20 20 20 20 19 20 21 23 22
18 17 18 17 17 17 17 18 18 18 18 20 21 23 24 25 25 25 25 24 24 24 25 25 25 25 25 24 24 24 24 24 24 24 24 24 23 23 23 23 23 22 22 22 21 20 20 21 21 20 20 20 20 20 21 21 20 20 20 19 20 21 21
17 17 17 17 17 17 17 17 17 18 18 19 19 19 21 22 23 23 24 23 24 24 24 24 24 24 24 24 24 23 23 23 23 23 22 22 22 22 22 22 22 21 21 21 21 20 20 20 21 21 21 21 21 20 21 21 20 20 20 20 19 19 19
16 16 16 16 16 17 17 17 17 18 18 18 18 18 18 19 20 20 21 22 22 22 22 23 24 23 23 23 22 22 22 22 22 22 22 21 21 21 21 21 21 21 21 21 21 21 21 21 21 21 21 21 21 21 21 21 21 21 20 20 20 19 19
16 16 16 16 16 16 16 16 17 17 17 17 17 17 17 17 18 19 19 20 20 20 20 21 22 22 21 21 21 20 21 21 21 21 21 21 21 21 21 21 21 21 21 21 21 21 21 21 21 21 21 21 21 21 21 21 21 21 20 20 20 19 19
15 15 15 16 16 16 16 16 16 16 17 17 17 17 17 17 17 18 19 19 20 20 21 22 22 21 20 20 20 20 20 20 20 20 20 21 22 22 21 21 21 21 21 21 21 20 20 20 20 20 21 21 21 21 21 21 21 21 20 20 20 20 20
15 15 15 15 15 15 16 16 16 16 16 16 16 16 17 17 17 17 18 19 19 20 21 22 22 22 21 21 20 20 20 20 19 19 19 20 21 21 21 20 20 19 20 20 20 20 20 20 19 19 20 20 20 20 20 20 20 20 20 20 20 19 19
15 15 15 15 15 15 15 15 16 16 16 16 16 16 16 16 16 17 17 18 19 19 20 21 21 20 20 20 20 21 20 19 19 19 19 19 19 19 19 19 19 19 19 19 19 19 20 20 20 20 20 20 20 20 20 20 20 20 20 20 19 19 19

ECMWFFLT1_850_temp_042.txt.gz
Temp
32 31 30 30 30 29 28 27 27 26 26 25 25 25 24 24 23 23 22 23 24 24 24 24 24 23 23 23 23 23 23 23 23 23 23 22 23 23 22 23 23 23 22 23 23 23 23 22 21 21 22 23 23 23 22 22 22 21 21 21 21 21 21
32 31 30 29 29 29 28 28 27 26 26 26 25 25 25 24 24 23 23 23 24 25 25 25 24 24 24 24 24 24 24 24 23 23 23 23 23 23 23 23 23 23 23 23 23 23 23 23 22 21 21 22 23 23 22 22 22 22 21 21 21 21 21
32 32 31 30 29 28 28 27 27 26 26 26 25 25 25 24 24 24 23 23 23 24 25 26 25 25 25 25 24 24 24 24 24 23 23 24 24 23 23 23 23 23 23 23 23 23 23 23 22 22 21 22 22 23 23 22 22 22 22 21 21 21 21
32 33 33 32 30 29 28 28 27 27 26 26 25 25 25 25 24 24 23 23 23 24 25 26 26 26 26 25 25 25 25 25 24 24 24 24 24 24 24 23 23 22 23 23 23 22 22 22 22 22 22 22 22 23 23 23 22 22 22 21 22 21 22
32 33 33 33 31 30 29 29 27 27 27 26 25 25 25 25 24 24 23 23 23 25 26 26 26 26 26 26 26 26 26 25 25 25 24 24 24 24 24 23 23 23 22 23 23 23 22 22 22 22 22 22 22 22 23 23 23 22 22 21 22 22 22
33 33 33 33 32 31 30 30 29 28 28 27 26 25 25 25 25 24 23 23 23 24 25 26 26 26 26 26 26 26 26 26 26 25 25 25 24 24 24 24 23 23 23 23 23 23 23 22 22 22 22 22 22 22 23 23 23 22 22 22 22 22 22
33 33 33 33 33 31 30 30 30 29 28 27 26 26 26 25 25 25 24 23 23 23 24 25 25 26 26 26 26 26 26 26 26 26 25 25 24 24 24 24 24 23 23 23 23 23 23 23 23 22 22 22 22 22 23 23 23 23 23 22 22 22 22
33 33 34 34 33 32 31 30 30 29 28 27 26 26 26 26 26 25 24 24 23 23 23 24 25 26 26 27 26 26 26 26 26 26 26 25 25 25 24 24 24 24 23 23 23 23 23 23 23 23 22 22 22 23 23 23 23 23 23 23 23 22 22
34 34 34 34 33 32 31 30 30 29 29 28 27 27 27 26 26 25 25 24 23 23 23 24 25 25 26 26 26 26 26 26 26 26 26 26 25 25 25 24 24 24 23 23 23 23 23 23 23 23 23 22 22 22 23 23 23 23 22 23 23 23 23
35 33 34 34 33 33 31 30 30 29 29 28 28 28 27 26 26 26 26 25 24 24 23 24 24 25 25 26 26 26 26 26 26 26 26 26 26 26 25 25 25 24 24 24 23 22 23 23 23 23 23 23 22 22 22 22 23 23 22 22 23 23 23
35 34 34 34 34 33 32 31 30 29 29 28 28 28 28 27 27 26 26 26 25 25 24 24 24 24 25 26 26 26 26 26 26 26 26 26 26 26 26 25 25 25 24 24 23 23 23 23 22 23 23 24 23 23 23 23 22 22 22 22 22 23 23
34 34 34 34 33 33 32 31 30 30 29 29 29 29 28 27 27 27 27 26 26 25 25 24 24 24 24 25 26 26 26 26 26 26 26 26 26 26 26 25 25 25 25 25 24 24 23 23 23 23 23 24 24 23 23 23 22 22 22 22 22 22 23
32 33 33 33 33 33 32 32 31 30 30 29 29 29 28 28 27 27 27 27 26 26 26 25 25 25 24 25 25 26 26 27 27 26 26 26 26 26 25 25 25 24 24 24 24 24 24 23 23 23 23 24 24 24 23 23 23 22 22 22 22 21 22
32 32 32 33 33 32 32 31 31 30 30 30 29 29 29 28 28 28 27 27 27 27 27 26 26 26 25 25 25 25 26 27 27 27 26 26 26 26 25 25 25 24 24 24 24 24 24 24 23 23 23 23 24 24 23 23 23 23 22 22 22 21 21
33 32 32 32 32 32 31 31 31 30 30 30 29 29 29 29 28 28 28 28 27 27 27 27 26 26 26 25 25 25 25 26 27 27 27 26 26 26 25 25 25 24 24 24 24 23 24 24 23 23 23 23 23 23 23 23 23 23 23 22 22 22 21
33 33 32 31 31 31 31 30 30 30 30 30 29 29 29 29 29 28 28 28 28 28 28 28 27 26 26 26 25 25 25 26 26 27 27 27 26 26 26 25 25 25 24 24 24 24 23 23 23 23 23 23 22 23 23 23 23 23 23 23 23 23 22
34 33 32 31 31 31 31 31 30 30 30 29 29 29 29 29 29 29 28 28 28 28 28 28 28 27 27 26 26 25 25 25 26 26 27 27 27 27 26 26 25 25 25 24 24 24 24 23 23 23 23 23 22 22 22 23 23 24 24 24 24 23 23
34 33 32 31 31 31 31 31 31 30 30 30 29 29 29 29 29 29 29 29 29 28 28 28 28 28 27 27 26 26 26 26 26 26 27 27 27 27 27 26 26 25 25 25 24 24 24 24 23 23 23 23 23 22 22 23 23 24 24 24 24 24 24
33 33 33 32 32 31 31 30 30 30 30 29 29 29 29 29 29 29 29 29 29 29 29 29 29 28 28 27 27 26 26 26 26 26 27 28 28 27 27 26 26 26 25 25 25 24 24 24 24 24 24 24 23 23 23 23 23 24 24 25 25 25 24
32 33 33 33 33 32 32 31 30 30 30 30 29 29 29 29 29 28 29 29 29 29 29 29 29 29 28 28 27 27 26 26 26 26 26 27 27 27 26 26 26 26 26 25 25 25 25 24 24 24 24 24 24 23 23 23 23 23 24 25 25 25 25
32 32 32 32 32 31 31 31 31 30 30 30 30 30 29 29 29 28 28 28 29 29 29 29 29 29 29 28 27 27 26 26 26 26 26 26 26 26 26 26 27 26 26 25 25 25 25 25 25 25 24 24 24 24 24 23 23 23 24 24 25 25 25
32 32 32 32 31 30 30 30 30 30 30 30 31 31 30 29 29 29 29 28 28 29 29 29 29 29 29 28 28 27 26 26 26 26 26 25 25 25 26 26 26 26 26 25 25 25 25 24 24 24 24 24 24 24 24 24 24 23 23 24 24 24 24
30 31 31 30 29 29 29 29 29 29 29 29 29 30 30 30 30 29 29 29 28 28 28 28 28 29 29 28 28 27 27 26 26 26 25 25 25 25 25 26 26 26 25 25 25 24 24 24 24 24 24 24 24 24 25 25 24 23 23 23 23 23 23
28 28 28 28 27 27 28 28 28 27 28 28 28 28 29 30 30 30 30 29 29 29 28 28 28 28 28 28 28 27 27 26 26 26 25 25 25 25 25 25 25 25 25 25 25 25 24 24 24 24 24 24 24 24 24 25 24 24 23 23 22 22 22
26 26 27 26 26 26 27 27 27 27 28 28 27 27 28 28 30 30 30 30 30 29 29 28 28 28 28 28 28 27 27 26 26 26 25 25 25 24 24 24 24 24 24 24 24 24 24 24 23 23 23 23 23 24 24 24 24 24 23 23 22 22 22
25 25 25 25 24 25 26 26 26 26 27 26 26 26 27 27 28 29 30 30 30 30 29 29 28 28 28 28 28 27 27 26 26 26 25 25 24 24 24 24 24 24 23 23 23 24 23 23 23 23 23 23 23 23 23 23 23 23 23 23 22 22 22
24 24 24 24 24 24 25 25 25 25 26 26 25 26 26 27 28 28 29 30 29 30 30 29 29 28 28 28 27 27 27 26 26 25 25 24 24 24 24 24 24 23 23 23 23 23 23 23 23 22 22 22 22 22 22 22 22 22 22 22 22 22 22
23 23 23 24 24 23 23 24 24 24 25 24 24 25 25 26 27 27 28 29 29 29 29 29 29 29 28 28 27 27 26 26 25 25 24 24 23 23 23 23 23 23 23 22 22 22 22 22 22 22 22 22 22 22 22 22 22 22 22 22 22 21 21
22 22 22 23 24 22 22 23 23 23 23 23 23 24 25 25 26 26 27 27 28 28 29 29 29 29 28 28 27 27 26 26 25 25 24 23 23 23 23 23 23 23 22 22 22 22 22 22 22 22 22 22 22 22 22 22 22 22 22 22 22 21 21
21 21 22 23 23 21 21 22 22 22 22 21 22 23 24 25 25 25 25 26 27 27 28 28 28 28 28 28 27 27 26 25 25 24 23 23 23 23 23 23 23 22 22 22 22 22 22 22 22 22 22 22 22 22 22 22 22 22 22 22 22 22 21
21 21 21 22 21 21 21 22 22 21 21 21 21 22 23 24 24 24 25 25 25 26 26 27 27 27 27 27 27 26 26 25 24 24 23 23 23 23 23 22 22 22 22 22 22 22 22 22 22 22 22 22 22 22 22 22 22 22 22 22 22 22 22
20 20 20 20 20 20 20 21 21 21 20 21 21 21 22 23 23 23 23 24 24 25 25 26 26 26 26 26 25 25 25 25 24 24 23 23 23 23 23 22 22 22 22 22 22 22 22 22 22 22 22 22 22 22 22 22 22 22 22 22 23 23 22
18 19 19 19 19 19 19 19 20 20 20 20 20 20 21 21 22 22 22 22 23 24 24 25 25 24 25 25 24 24 24 24 24 23 23 23 23 23 23 23 22 22 22 22 22 22 22 22 22 22 22 22 22 22 22 22 22 22 22 22 22 22 22
17 18 18 18 18 19 19 19 19 19 19 19 19 20 20 20 20 21 21 22 22 22 23 24 23 23 23 24 23 23 24 23 23 23 23 23 23 23 23 23 23 22 22 22 22 22 22 22 22 22 22 22 22 22 22 22 22 22 22 22 22 21 21
17 17 18 18 18 19 18 18 19 19 19 19 19 19 19 19 20 20 21 21 22 22 22 22 23 23 23 23 23 23 23 23 23 23 23 23 23 23 23 23 23 23 22 22 22 22 22 22 22 22 22 22 22 22 22 22 22 22 21 21 21 20 20
17 17 17 18 18 18 18 18 18 18 18 18 19 18 19 19 19 19 20 20 21 21 21 22 22 23 23 23 23 23 23 23 23 23 23 23 23 23 23 23 23 23 23 22 22 22 22 22 22 22 22 22 22 22 22 22 21 21 21 21 21 20 20
17 17 17 17 18 18 18 18 18 18 18 18 18 18 18 18 18 19 19 20 20 21 21 22 22 22 22 22 23 23 23 23 23 23 23 23 23 23 23 23 22 22 22 22 22 22 22 22 22 22 22 21 21 21 21 21 21 21 21 21 21 21 21
17 17 17 17 18 17 17 18 18 18 18 18 18 18 18 18 18 18 19 19 20 20 21 21 21 21 22 22 23 23 23 23 23 23 23 23 23 23 23 23 22 22 21 21 21 21 21 21 21 21 21 21 21 21 21 21 21 21 21 21 21 21 21

ECMWFFLT1_850_temp_045.txt.gz
Temp
28 28 28 27 27 27 26 26 26 26 26 25 25 24 24 24 23 23 22 22 21 21 21 21 21 22 23 23 24 24 24 24 24 23 23 23 23 23 23 23 23 22 22 22 22 22 22 22 22 22 23 23 22 22 22 22 22 21 21 21 21 21 21
29 28 28 27 27 27 27 26 26 26 26 25 25 24 24 24 23 23 22 22 22 22 22 22 21 22 23 24 24 24 24 24 24 24 24 23 23 23 23 23 23 23 22 22 22 22 22 22 22 22 23 23 23 22 22 22 22 22 22 21 21 21 21
29 28 28 28 27 27 27 27 26 26 26 25 25 25 24 24 23 23 23 22 22 21 21 22 22 22 23 24 24 24 24 24 24 24 24 24 23 23 23 23 23 23 23 22 22 22 22 22 22 22 22 23 23 22 22 22 22 22 22 21 21 21 21
29 29 28 28 28 27 27 27 27 26 26 26 26 25 25 24 24 23 23 22 22 21 21 22 22 22 22 23 24 24 24 24 24 24 24 24 24 24 23 23 23 23 23 23 22 22 22 22 22 22 22 22 22 23 22 22 22 22 22 22 21 21 21
29 29 29 28 28 28 27 27 27 27 26 26 26 26 25 25 24 23 23 23 22 22 22 22 22 21 21 22 23 24 25 25 25 25 25 24 24 24 23 23 23 23 23 23 23 22 22 22 22 22 22 22 22 23 22 22 22 22 22 22 22 21 21
30 29 29 29 28 28 28 27 27 27 26 26 26 25 25 25 24 24 23 23 23 22 22 22 22 21 21 21 22 24 25 25 25 25 25 25 24 24 24 24 24 24 24 23 23 23 22 22 22 22 22 22 22 23 23 23 23 23 23 22 22 22 22
30 30 30 29 29 29 28 28 27 27 27 26 26 25 25 25 25 24 24 23 23 23 22 22 22 21 21 21 21 22 24 24 25 25 25 25 25 24 24 24 24 24 24 24 23 23 23 23 23 22 22 22 22 23 23 23 23 23 23 23 22 22 22
30 30 30 30 30 29 28 28 28 28 27 27 26 26 25 25 25 24 24 24 23 23 23 22 22 22 21 21 21 22 23 24 24 25 25 25 25 25 25 25 24 24 24 24 24 24 23 23 23 22 22 22 22 23 23 23 23 23 23 23 23 23 22
31 30 30 30 30 29 29 28 28 28 27 27 26 26 25 25 25 24 24 24 24 23 23 23 22 22 22 21 21 22 23 24 24 24 24 24 24 25 25 25 25 24 24 24 24 24 24 24 23 22 22 22 22 22 23 23 24 24 24 24 23 23 23
32 31 31 31 30 30 29 29 28 27 27 26 26 26 26 25 25 25 25 24 24 24 23 23 23 22 22 22 22 22 22 23 24 24 24 24 24 25 25 25 25 24 24 24 24 24 24 24 23 23 22 22 22 22 23 23 24 24 24 24 24 24 23
32 31 31 30 30 30 29 29 28 28 27 27 27 27 26 26 26 25 25 24 24 24 23 23 23 22 22 22 22 22 22 23 23 24 24 24 24 25 25 25 25 25 25 24 24 24 24 24 23 23 23 23 23 23 23 23 24 24 24 24 24 24 24
32 32 31 30 30 29 29 29 29 29 29 28 27 27 27 27 26 25 25 25 24 24 23 23 23 22 22 22 22 22 22 23 23 24 24 25 25 25 25 25 25 25 25 25 24 24 24 23 23 23 23 23 23 24 24 24 24 24 24 24 24 24 24
31 32 31 30 30 29 29 29 29 29 29 28 28 27 27 27 26 26 25 25 25 24 24 23 23 22 22 22 22 22 23 23 24 24 25 25 25 25 25 25 25 25 25 25 24 24 24 24 24 24 24 24 24 24 24 24 24 24 24 24 24 24 24
31 31 31 31 30 30 30 29 29 29 29 28 28 27 27 27 26 26 25 25 25 25 24 24 23 22 22 22 22 22 23 23 24 25 25 25 25 25 25 25 25 25 25 25 24 24 24 24 24 24 24 24 24 24 24 24 24 23 23 23 23 23 23
31 30 31 31 30 30 30 29 29 29 29 29 29 28 28 27 26 26 26 26 26 25 25 24 24 23 23 22 22 22 23 23 24 24 25 25 25 25 26 25 25 25 25 24 25 25 25 24 24 24 24 24 24 24 24 23 23 23 23 23 23 23 23
30 30 30 30 30 30 30 30 30 30 29 29 29 28 28 27 26 26 26 26 26 26 25 25 24 24 23 23 23 23 23 23 24 24 24 24 25 26 26 26 25 25 24 24 25 25 25 24 24 24 24 24 24 24 23 23 23 23 23 23 24 24 23
30 30 30 30 30 30 30 30 30 30 30 29 29 28 27 27 27 27 26 26 26 26 26 25 25 25 24 24 23 23 23 23 23 24 24 24 25 25 26 26 25 25 24 24 25 25 25 25 24 24 24 24 24 23 23 23 23 23 23 23 23 23 23
31 31 31 31 30 30 30 30 30 30 30 30 29 28 28 28 27 27 27 27 27 26 26 26 26 25 25 24 24 24 24 24 24 24 24 24 25 25 26 26 25 25 25 24 25 25 25 25 25 24 24 23 23 23 23 23 23 23 23 23 23 23 23
31 31 31 31 30 30 30 30 30 30 30 30 29 29 28 28 28 28 28 27 27 27 27 26 26 26 26 25 25 25 25 24 24 24 24 25 25 25 25 25 25 25 25 25 25 25 25 25 25 24 24 23 23 23 23 24 24 23 23 23 23 23 23
31 31 31 31 31 31 31 31 31 30 29 29 29 28 28 28 28 28 28 28 27 27 27 27 27 26 26 26 26 25 25 25 25 25 25 25 25 25 25 25 25 25 25 25 25 25 25 25 25 25 24 24 24 24 24 24 24 24 24 24 24 23 23
31 31 30 30 31 31 31 31 31 30 30 29 29 29 29 29 29 29 29 28 28 28 28 27 27 27 27 27 26 26 26 26 26 25 25 25 25 25 25 25 25 25 25 25 25 25 25 25 25 25 25 25 24 24 24 24 24 25 24 24 24 24 23
28 28 28 28 29 29 30 30 30 30 30 30 29 29 29 29 29 29 29 29 28 28 28 28 28 28 27 27 27 27 26 26 26 26 26 26 25 25 25 25 25 25 25 25 25 25 25 25 25 25 25 25 25 24 24 24 24 24 24 24 24 23 23
26 26 26 27 27 28 29 29 29 30 30 30 29 29 29 29 30 29 29 29 28 28 28 28 28 28 28 28 28 27 27 26 26 26 27 26 26 25 25 25 25 25 25 25 25 25 25 25 25 25 25 25 25 25 25 25 24 23 23 23 23 23 23
25 25 25 26 26 27 27 28 29 29 30 30 30 29 29 29 29 29 29 29 29 29 28 28 28 28 28 28 28 28 27 27 26 26 26 27 27 26 26 26 25 25 25 25 25 25 25 25 25 25 25 25 25 25 25 25 24 24 23 23 23 22 22
24 24 25 25 26 26 25 26 27 28 28 28 29 30 29 28 28 28 29 29 29 29 29 29 28 28 28 28 28 28 28 27 27 26 26 27 27 27 26 26 26 25 25 25 25 25 25 24 24 24 24 24 24 24 24 24 24 24 23 23 22 22 22
23 24 24 24 25 25 25 25 26 26 25 26 27 28 28 29 28 28 28 28 29 29 29 29 29 29 28 28 28 28 28 28 27 27 26 26 26 27 26 26 26 25 25 25 24 24 24 24 24 24 24 24 24 24 24 24 23 23 23 23 23 22 22
23 24 23 23 23 24 25 25 25 24 24 25 25 26 27 27 28 28 28 28 28 28 28 29 29 29 28 28 28 28 28 28 27 27 27 26 26 26 26 26 25 25 25 24 24 24 24 24 24 24 24 24 23 23 23 23 23 23 23 23 22 22 22
23 23 23 22 22 23 23 24 23 23 24 24 24 25 25 26 26 27 27 27 28 28 28 28 29 29 29 29 28 28 28 28 27 27 27 26 26 26 26 26 25 25 24 24 24 24 23 23 24 24 24 23 23 23 23 23 23 23 23 22 22 22 22
21 22 21 21 22 22 22 22 22 23 23 23 23 24 25 25 26 26 26 26 27 28 28 28 28 29 29 29 28 28 28 28 27 27 27 26 26 25 25 25 25 24 24 24 24 23 23 23 23 23 23 23 23 23 23 23 22 22 22 22 22 22 22
20 20 20 20 20 21 22 22 21 21 22 22 22 23 23 24 24 25 25 26 26 27 27 28 28 28 29 29 29 28 28 28 28 27 27 26 26 25 25 25 25 24 24 24 23 23 23 23 23 23 23 23 22 22 22 22 22 22 22 22 22 22 22
19 19 19 19 20 20 21 21 20 20 21 21 21 22 22 22 22 23 24 25 25 26 26 27 27 28 28 28 28 28 28 28 28 27 27 26 26 25 25 25 25 24 24 23 23 23 22 22 22 22 22 22 22 22 22 22 22 22 22 22 22 22 22
18 18 18 18 19 19 20 20 20 20 20 20 20 21 21 21 22 22 23 24 24 25 26 26 27 27 27 27 27 28 28 28 27 27 26 26 25 25 25 25 24 24 23 23 22 22 22 22 22 22 22 22 22 22 22 22 22 22 22 22 22 22 22
18 18 18 18 18 19 19 19 19 19 19 19 20 20 20 20 21 21 22 23 23 24 25 25 26 26 27 27 27 27 27 27 26 26 25 25 25 24 24 24 23 23 23 22 22 22 22 22 22 22 21 21 21 21 22 22 21 21 21 22 22 22 22
17 17 18 18 18 18 18 18 18 19 19 19 19 19 20 20 21 21 21 22 22 23 24 24 24 25 25 26 26 26 26 25 25 25 25 24 24 24 23 23 23 23 22 22 22 22 22 22 21 21 21 21 21 21 21 21 21 21 22 22 22 22 22
17 17 17 17 18 18 18 18 18 18 18 18 19 19 19 19 20 20 21 21 21 22 23 23 24 24 24 24 25 25 25 24 24 24 24 23 23 23 23 23 23 23 22 22 22 22 22 22 21 21 21 21 21 21 21 21 21 21 21 21 21 21 21
17 17 17 17 18 18 18 18 18 18 18 18 18 18 19 19 19 19 20 21 21 21 22 23 23 23 23 23 24 24 24 24 24 23 23 23 23 23 23 22 22 22 22 22 22 22 22 21 21 21 21 21 21 21 21 21 21 21 21 21 21 21 21
17 17 17 17 17 18 18 18 18 18 18 18 18 18 18 18 18 19 19 20 21 21 21 22 22 22 23 23 23 23 23 23 23 23 23 23 23 23 23 22 22 22 21 21 21 21 21 21 21 21 21 21 21 21 21 21 21 21 20 20 20 20 20
17 17 17 17 17 17 17 18 18 18 18 18 18 18 18 18 18 18 19 19 20 20 21 21 22 22 22 23 23 23 23 23 23 23 23 23 23 23 23 23 22 21 21 21 21 21 21 21 21 21 21 21 21 21 21 21 21 20 20 20 20 20 20

ECMWFFLT1_850_temp_048.txt.gz
Temp
27 27 26 26 26 25 25 25 25 25 24 24 24 23 23 23 23 23 22 22 22 22 22 22 21 21 21 21 21 22 22 23 23 23 23 23 23 23 23 23 23 23 23 23 23 23 23 23 22 22 22 22 22 22 22 22 21 21 20 20 20 20 21
27 27 26 26 26 25 25 25 25 25 25 24 24 24 23 23 23 23 23 22 22 22 22 22 21 21 21 21 21 21 22 22 23 23 23 23 22 22 22 23 23 23 23 23 23 23 23 23 22 22 22 22 22 22 22 22 21 21 21 20 20 20 20
27 27 27 26 26 26 25 25 25 25 25 24 24 24 24 23 23 23 23 23 23 22 22 22 21 22 22 21 21 21 22 22 22 22 23 23 23 23 23 23 23 23 23 23 23 23 23 23 22 22 22 22 22 22 22 22 21 21 21 21 21 21 21
27 27 27 26 26 26 26 25 25 25 25 25 24 24 24 24 24 23 23 23 23 22 22 22 22 22 22 21 21 21 21 22 22 23 23 23 23 23 23 23 23 23 23 23 23 23 23 23 22 22 22 22 22 22 22 22 22 22 21 21 21 21 21
27 27 27 27 26 26 26 25 25 25 25 25 25 24 24 24 24 23 23 23 23 23 23 22 22 22 21 21 21 21 21 21 22 22 23 23 23 23 23 23 23 23 23 23 23 23 23 22 22 22 22 22 22 22 22 22 22 22 22 21 21 21 21
27 27 27 27 26 26 26 25 25 25 25 25 25 24 24 24 23 23 23 23 23 23 23 22 22 22 21 21 21 21 21 21 21 22 22 23 23 23 23 23 23 23 23 23 23 23 23 23 23 22 22 22 22 22 22 22 22 22 22 22 22 22 21
27 27 27 27 26 26 26 26 25 25 25 25 25 25 24 24 24 23 23 23 23 23 22 22 22 22 22 21 21 21 21 21 22 22 22 22 22 23 23 23 23 24 24 23 23 23 23 23 23 23 23 22 23 23 22 22 22 22 22 22 22 22 22
28 27 27 27 27 26 26 26 25 25 25 25 25 25 24 24 24 23 23 23 23 23 22 22 22 22 22 22 22 21 21 22 22 22 22 22 21 22 22 23 23 24 23 23 24 23 23 23 23 23 23 23 23 23 23 23 23 23 23 23 23 22 22
28 28 28 27 27 26 26 26 26 25 25 25 25 25 24 24 24 24 23 23 23 23 23 23 23 22 22 22 22 22 22 21 22 22 22 22 22 22 22 22 23 23 23 23 24 24 24 24 24 23 23 23 23 23 23 23 23 23 23 23 23 23 23
28 28 28 28 27 27 26 26 26 25 25 25 25 25 25 24 24 24 24 23 23 23 23 23 23 22 22 22 22 22 22 22 22 22 22 22 22 22 22 22 22 22 23 23 23 23 24 24 24 24 23 23 23 23 24 24 24 23 23 23 23 23 23
28 28 28 28 27 27 26 26 26 26 25 25 25 25 25 25 24 24 24 23 23 23 23 23 22 22 22 22 22 22 22 22 22 22 22 23 23 23 23 23 22 22 23 23 23 23 24 24 24 24 24 24 24 24 24 24 24 24 23 23 23 23 23
28 28 28 28 27 27 27 26 26 26 26 26 25 25 25 25 25 24 24 23 23 23 23 23 22 22 22 22 22 22 22 22 22 22 23 23 23 23 23 23 23 23 23 23 23 24 24 24 24 24 24 24 24 24 24 24 24 24 24 24 23 23 23
29 28 28 28 28 27 27 27 26 26 26 26 26 26 26 25 25 25 24 24 24 23 23 23 23 23 22 22 22 22 22 22 22 23 23 23 23 23 23 23 23 23 23 24 24 24 24 24 24 24 24 25 24 24 24 24 24 23 23 23 23 23 23
29 28 28 28 28 27 27 27 27 26 26 26 26 26 26 26 25 25 25 24 24 24 23 23 23 23 23 23 22 22 22 22 23 23 24 24 24 24 23 23 23 23 23 24 24 24 24 24 24 24 24 25 25 24 24 24 23 23 23 23 23 23 23
29 28 28 28 28 28 28 28 27 27 26 26 26 26 26 26 25 25 25 24 24 24 24 23 23 23 23 23 23 22 22 22 22 23 23 23 23 23 23 23 23 23 23 23 24 24 25 25 24 24 25 25 25 24 24 24 23 23 24 24 23 23 23
29 28 28 28 28 28 28 28 28 27 27 27 27 26 26 26 26 25 25 25 25 24 24 24 23 23 23 23 23 23 23 22 22 23 23 23 23 23 23 23 23 22 22 23 24 24 24 24 24 24 25 25 25 24 24 24 24 24 24 24 24 24 24
29 29 28 28 28 28 28 28 28 27 27 27 27 27 27 27 26 26 26 25 25 24 24 24 23 23 23 23 23 23 23 23 22 22 23 23 23 23 23 23 22 22 22 22 23 24 24 24 24 24 25 25 25 24 24 24 24 24 24 24 24 24 23
29 29 29 29 28 28 28 28 28 28 28 28 28 28 28 28 27 26 26 26 25 25 24 24 23 23 23 23 23 23 23 23 23 23 23 23 22 22 22 22 22 22 22 22 23 24 24 24 24 24 25 24 24 24 24 24 24 24 24 24 24 23 23
29 29 29 29 29 29 29 29 29 29 29 29 29 29 29 28 28 27 27 27 26 25 25 24 24 24 24 24 24 23 24 23 23 23 23 23 22 22 22 22 22 22 22 22 23 23 24 24 24 24 24 24 24 24 24 25 25 25 24 24 24 23 23
28 28 28 28 29 29 29 29 29 29 29 29 29 29 29 28 28 28 28 27 27 26 26 25 24 24 24 24 24 24 24 24 24 24 23 23 23 22 22 22 22 22 22 22 23 23 23 24 24 24 24 24 24 24 25 25 25 25 25 24 24 24 23
27 27 27 28 28 28 28 28 28 28 28 29 29 28 28 28 28 28 27 27 27 26 26 25 25 25 24 25 25 25 25 24 24 24 24 24 23 23 23 22 22 22 22 22 22 23 23 24 24 24 24 24 24 24 24 25 25 25 25 25 24 24 23
26 26 27 27 27 27 27 28 28 28 28 28 28 28 28 28 28 28 27 27 27 26 26 25 25 25 25 25 25 25 25 25 25 25 24 24 24 23 23 23 23 23 23 22 22 23 23 23 24 24 24 24 24 24 24 25 25 25 25 25 24 24 23
25 25 25 26 26 26 27 27 27 28 28 28 27 27 27 28 28 28 27 27 27 27 26 26 26 26 26 25 25 26 25 25 25 25 25 25 24 24 24 24 24 24 23 23 23 23 23 23 24 24 24 24 24 24 24 25 25 25 25 24 24 23 23
24 25 25 25 26 26 26 27 27 27 27 27 27 27 27 27 27 27 27 27 27 27 27 26 26 26 26 26 26 26 26 26 26 26 26 25 25 25 25 25 24 24 24 24 24 24 24 24 23 24 24 24 24 24 24 24 24 24 24 24 23 23 23
24 24 24 25 25 25 25 26 26 26 27 28 27 27 27 27 27 27 27 27 27 27 27 27 27 27 27 27 27 27 26 26 26 26 26 26 26 26 26 26 25 25 25 24 24 25 25 24 24 24 24 24 24 24 23 23 23 23 23 23 22 22 22
23 23 24 24 25 25 25 26 26 27 27 27 27 27 27 27 27 27 27 27 27 27 27 27 27 27 27 27 27 27 27 27 27 26 26 26 27 26 26 26 26 26 25 25 25 25 25 24 24 24 24 24 24 24 23 23 23 23 23 23 22 22 22
22 23 23 24 24 25 26 26 26 26 25 25 25 26 26 27 27 27 27 27 27 27 27 27 28 28 28 28 28 27 27 27 27 27 27 27 27 27 27 27 26 26 26 25 25 25 24 24 24 24 24 24 24 24 24 23 23 23 23 23 23 23 22
22 22 23 23 24 25 26 27 26 25 25 25 25 25 26 26 27 27 27 27 27 27 27 27 28 28 28 28 28 28 28 28 27 27 27 27 27 27 26 26 26 26 26 26 25 25 25 25 24 24 24 24 24 24 24 23 23 23 23 23 23 23 23
22 21 21 22 23 23 25 26 26 25 25 25 25 25 26 26 26 26 26 26 27 27 27 27 27 28 28 28 28 28 28 28 28 28 27 27 27 26 26 26 26 26 26 26 25 25 25 25 24 24 24 24 24 24 23 23 23 23 23 23 23 22 22
20 20 20 21 21 21 22 23 23 23 23 23 24 24 25 26 26 26 26 26 26 26 27 27 27 27 27 28 28 28 28 28 28 28 27 27 27 26 26 26 26 26 26 26 26 25 25 25 24 24 24 24 23 23 23 23 22 22 22 22 22 22 22
19 19 19 20 20 20 21 21 21 21 21 21 22 22 23 23 24 24 24 24 25 25 26 26 27 27 27 28 28 28 28 28 28 28 28 27 27 26 26 26 25 26 25 25 25 25 25 24 24 24 24 23 23 23 23 22 22 22 22 22 22 22 22
18 18 19 19 20 20 20 20 20 20 20 21 21 21 21 21 22 22 23 23 24 24 25 25 26 26 27 27 28 28 28 28 28 28 28 27 27 26 26 26 26 26 25 25 25 25 24 24 24 23 23 23 23 22 22 22 22 22 22 22 21 21 21
18 18 19 19 19 19 19 19 19 20 20 20 20 21 20 20 20 21 21 22 22 23 24 24 25 26 26 27 27 28 28 28 28 28 27 27 26 26 26 26 25 25 25 25 25 24 24 23 23 23 23 22 22 22 22 22 22 21 21 21 21 21 21
18 18 18 18 18 19 19 19 18 19 19 19 19 20 20 20 20 20 20 21 21 22 23 24 24 25 25 26 27 27 27 27 27 27 27 26 25 25 25 24 24 24 24 24 24 24 23 23 23 23 22 22 22 22 21 21 21 21 21 21 21 21 21
18 18 18 18 18 18 18 18 18 18 18 18 19 19 19 19 19 20 20 20 20 21 22 23 23 23 24 25 26 26 27 27 27 26 26 26 25 25 24 24 23 23 23 23 23 23 23 23 23 22 22 22 22 21 21 21 21 21 21 21 21 21 21
17 17 18 18 18 18 18 18 18 18 18 18 18 18 18 18 19 19 19 20 20 20 21 22 23 23 23 24 25 25 26 26 25 25 25 25 25 25 24 23 23 23 23 23 23 23 22 22 22 22 22 22 21 21 21 21 21 21 21 21 21 21 21
17 17 18 18 18 18 18 18 18 18 18 18 18 18 18 18 18 19 19 19 19 20 21 22 22 22 22 23 23 24 24 24 24 24 24 24 24 24 24 23 23 23 22 22 22 22 22 22 22 21 21 21 21 21 21 21 21 21 20 20 20 20 20
17 17 17 18 18 18 18 18 17 17 18 18 18 18 18 18 18 18 18 18 19 19 20 21 22 22 22 22 23 23 23 23 24 24 23 23 23 23 23 23 23 22 22 22 22 22 22 21 21 21 21 21 21 21 21 21 21 20 20 20 20 20 20